When you browse on this site, cookies collect data to enhance your experience and personalize the content and advertising you see.
Visit our Privacy Policy to learn more. By continuing to use the site, you agree to this use of cookies and data.
  • In Österreich
  • Länderverzeichnis
  • Für 7 Tage
  • Wassertemperatur
  • Wetterkarte
  • News
  • Widgets
  • user-avatar
    Anmelden

    Stündliche Wetter Wroclaw

    Heute, 25 Mai, Montag

    Zeit Temperatur Niederschläge Wind Luftdruck Luftfeuchtigkeit
    00:00 +9°C° 0 mm 3 m/S 757 mmHg 91%
    01:00 +10°C° 0 mm 3 m/S 757 mmHg 91%
    02:00 +10°C° 0.2 mm 4 m/S 757 mmHg 93%
    03:00 +8°C° 0.2 mm 4 m/S 757 mmHg 94%
    04:00 +8°C° 0.2 mm 5 m/S 757 mmHg 95%
    05:00 +9°C° 0.1 mm 5 m/S 757 mmHg 92%
    06:00 +9°C° 0.1 mm 5 m/S 757 mmHg 89%
    07:00 +9°C° 0.1 mm 6 m/S 757 mmHg 87%
    08:00 +10°C° 0.4 mm 5 m/S 757 mmHg 87%
    09:00 +10°C° 0.4 mm 5 m/S 757 mmHg 87%
    10:00 +10°C° 0.4 mm 5 m/S 757 mmHg 88%
    11:00 +10°C° 0.3 mm 5 m/S 757 mmHg 85%
    12:00 +12°C° 0.3 mm 5 m/S 757 mmHg 82%
    13:00 +13°C° 0.3 mm 5 m/S 757 mmHg 79%
    14:00 +13°C° 0.4 mm 5 m/S 757 mmHg 78%
    15:00 +14°C° 0.4 mm 5 m/S 757 mmHg 77%
    16:00 +14°C° 0.4 mm 5 m/S 757 mmHg 76%
    17:00 +14°C° 0.3 mm 5 m/S 758 mmHg 80%
    18:00 +13°C° 0.3 mm 4 m/S 758 mmHg 84%
    19:00 +12°C° 0.3 mm 3 m/S 758 mmHg 89%
    20:00 +11°C° 0.2 mm 4 m/S 759 mmHg 91%
    21:00 +10°C° 0.2 mm 4 m/S 759 mmHg 93%
    22:00 +10°C° 0.2 mm 4 m/S 760 mmHg 95%
    23:00 +8°C° 0.2 mm 4 m/S 760 mmHg 96%

    Morgen, 26 Mai, Dienstag

    Zeit Temperatur Niederschläge Wind Luftdruck Luftfeuchtigkeit
    00:00 +8°C° 0.2 mm 4 m/S 760 mmHg 96%
    01:00 +8°C° 0.2 mm 4 m/S 760 mmHg 97%
    02:00 +9°C° 0 mm 3 m/S 761 mmHg 97%
    03:00 +8°C° 0 mm 3 m/S 761 mmHg 97%
    04:00 +8°C° 0 mm 3 m/S 761 mmHg 97%
    05:00 +9°C° 0 mm 3 m/S 761 mmHg 95%
    06:00 +10°C° 0 mm 4 m/S 762 mmHg 93%
    07:00 +11°C° 0 mm 4 m/S 762 mmHg 91%
    08:00 +12°C° 0.1 mm 4 m/S 762 mmHg 84%
    09:00 +13°C° 0.1 mm 4 m/S 762 mmHg 78%
    10:00 +14°C° 0.1 mm 5 m/S 762 mmHg 72%
    11:00 +15°C° 0.1 mm 5 m/S 762 mmHg 69%
    12:00 +16°C° 0.1 mm 5 m/S 762 mmHg 67%
    13:00 +17°C° 0.1 mm 5 m/S 761 mmHg 65%
    14:00 +17°C° 0.3 mm 5 m/S 761 mmHg 66%
    15:00 +17°C° 0.3 mm 5 m/S 761 mmHg 67%
    16:00 +17°C° 0.3 mm 5 m/S 761 mmHg 69%
    17:00 +16°C° 0.1 mm 5 m/S 761 mmHg 74%
    18:00 +15°C° 0.1 mm 4 m/S 761 mmHg 78%
    19:00 +14°C° 0.1 mm 3 m/S 761 mmHg 83%
    20:00 +14°C° 0.1 mm 2 m/S 762 mmHg 85%
    21:00 +13°C° 0.1 mm 2 m/S 762 mmHg 88%
    22:00 +12°C° 0.1 mm 2 m/S 762 mmHg 90%
    23:00 +10°C° 0 mm 2 m/S 762 mmHg 91%

    übermorgen, 27 Mai, Mittwoch

    Zeit Temperatur Niederschläge Wind Luftdruck Luftfeuchtigkeit
    00:00 +10°C° 0 mm 2 m/S 762 mmHg 92%
    01:00 +9°C° 0 mm 2 m/S 762 mmHg 93%
    02:00 +9°C° 0 mm 2 m/S 762 mmHg 93%
    03:00 +8°C° 0 mm 2 m/S 762 mmHg 94%
    04:00 +8°C° 0 mm 2 m/S 762 mmHg 94%
    05:00 +9°C° 0 mm 2 m/S 762 mmHg 91%
    06:00 +11°C° 0 mm 3 m/S 762 mmHg 88%
    07:00 +12°C° 0 mm 3 m/S 762 mmHg 85%
    08:00 +13°C° 0 mm 3 m/S 762 mmHg 79%
    09:00 +16°C° 0 mm 3 m/S 762 mmHg 73%
    10:00 +18°C° 0 mm 3 m/S 761 mmHg 67%
    11:00 +18°C° 0 mm 3 m/S 761 mmHg 63%
    12:00 +19°C° 0 mm 3 m/S 761 mmHg 58%
    13:00 +20°C° 0 mm 4 m/S 760 mmHg 53%
    14:00 +20°C° 0 mm 4 m/S 760 mmHg 54%
    15:00 +20°C° 0 mm 4 m/S 759 mmHg 54%
    16:00 +19°C° 0 mm 4 m/S 759 mmHg 54%
    17:00 +18°C° 0 mm 3 m/S 759 mmHg 59%
    18:00 +17°C° 0 mm 2 m/S 759 mmHg 65%
    19:00 +16°C° 0 mm 1 m/S 758 mmHg 71%
    20:00 +15°C° 0 mm 1 m/S 758 mmHg 70%
    21:00 +15°C° 0 mm 1 m/S 759 mmHg 69%
    22:00 +14°C° 0 mm 1 m/S 759 mmHg 69%
    23:00 +14°C° 0.2 mm 2 m/S 759 mmHg 76%

    28 Mai, Donnerstag

    Zeit Temperatur Niederschläge Wind Luftdruck Luftfeuchtigkeit
    00:00 +12°C° 0.2 mm 3 m/S 759 mmHg 83%
    01:00 +12°C° 0.2 mm 4 m/S 758 mmHg 91%
    02:00 +11°C° 0.4 mm 4 m/S 758 mmHg 91%
    03:00 +10°C° 0.4 mm 4 m/S 758 mmHg 92%
    04:00 +8°C° 0.4 mm 4 m/S 758 mmHg 93%
    05:00 +8°C° 0 mm 4 m/S 758 mmHg 90%
    06:00 +9°C° 0 mm 5 m/S 758 mmHg 88%
    07:00 +9°C° 0 mm 5 m/S 758 mmHg 85%
    08:00 +10°C° 0 mm 5 m/S 758 mmHg 79%
    09:00 +12°C° 0 mm 5 m/S 758 mmHg 72%
    10:00 +13°C° 0 mm 6 m/S 758 mmHg 66%
    11:00 +14°C° 0 mm 6 m/S 757 mmHg 63%
    12:00 +15°C° 0 mm 6 m/S 757 mmHg 60%
    13:00 +16°C° 0 mm 6 m/S 757 mmHg 58%
    14:00 +16°C° 0.2 mm 6 m/S 756 mmHg 60%
    15:00 +16°C° 0.2 mm 6 m/S 756 mmHg 62%
    16:00 +16°C° 0.2 mm 5 m/S 756 mmHg 65%
    17:00 +15°C° 0.3 mm 5 m/S 756 mmHg 71%
    18:00 +13°C° 0.3 mm 4 m/S 756 mmHg 77%
    19:00 +12°C° 0.3 mm 3 m/S 756 mmHg 83%
    20:00 +11°C° 0 mm 3 m/S 756 mmHg 86%
    21:00 +10°C° 0 mm 2 m/S 756 mmHg 90%
    22:00 +9°C° 0 mm 2 m/S 756 mmHg 93%
    23:00 +8°C° 0 mm 2 m/S 756 mmHg 92%

    29 Mai, Freitag

    Zeit Temperatur Niederschläge Wind Luftdruck Luftfeuchtigkeit
    00:00 +9°C° 0 mm 1 m/S 756 mmHg 92%
    01:00 +8°C° 0 mm 1 m/S 756 mmHg 91%
    02:00 +8°C° 0 mm 1 m/S 756 mmHg 91%
    03:00 +8°C° 0 mm 1 m/S 755 mmHg 92%
    04:00 +8°C° 0 mm 1 m/S 755 mmHg 92%
    05:00 +9°C° 0.1 mm 1 m/S 755 mmHg 90%
    06:00 +10°C° 0.1 mm 1 m/S 755 mmHg 87%
    07:00 +11°C° 0.1 mm 1 m/S 754 mmHg 85%
    08:00 +12°C° 0.7 mm 2 m/S 754 mmHg 83%
    09:00 +12°C° 0.7 mm 2 m/S 754 mmHg 81%
    10:00 +12°C° 0.7 mm 2 m/S 754 mmHg 80%
    11:00 +13°C° 0.7 mm 2 m/S 753 mmHg 79%
    12:00 +13°C° 0.7 mm 2 m/S 753 mmHg 78%
    13:00 +13°C° 0.7 mm 2 m/S 753 mmHg 78%
    14:00 +13°C° 0.6 mm 2 m/S 752 mmHg 79%
    15:00 +13°C° 0.6 mm 2 m/S 752 mmHg 79%
    16:00 +12°C° 0.6 mm 3 m/S 752 mmHg 80%
    17:00 +12°C° 0.2 mm 2 m/S 752 mmHg 84%
    18:00 +12°C° 0.2 mm 2 m/S 752 mmHg 87%
    19:00 +10°C° 0.2 mm 2 m/S 752 mmHg 90%
    20:00 +9°C° 0 mm 2 m/S 752 mmHg 91%
    21:00 +8°C° 0 mm 2 m/S 753 mmHg 92%
    22:00 +7°C° 0 mm 2 m/S 753 mmHg 93%
    23:00 +7°C° 0 mm 2 m/S 753 mmHg 93%

    30 Mai, Samstag

    Zeit Temperatur Niederschläge Wind Luftdruck Luftfeuchtigkeit
    00:00 +7°C° 0 mm 2 m/S 753 mmHg 94%
    01:00 +7°C° 0 mm 2 m/S 752 mmHg 94%
    02:00 +7°C° 0.1 mm 3 m/S 752 mmHg 95%
    03:00 +7°C° 0.1 mm 3 m/S 752 mmHg 96%
    04:00 +7°C° 0.1 mm 3 m/S 752 mmHg 97%
    05:00 +7°C° 0.4 mm 4 m/S 752 mmHg 96%
    06:00 +7°C° 0.4 mm 4 m/S 752 mmHg 95%
    07:00 +8°C° 0.4 mm 4 m/S 752 mmHg 94%
    08:00 +8°C° 0.4 mm 4 m/S 752 mmHg 94%
    09:00 +8°C° 0.4 mm 4 m/S 752 mmHg 95%
    10:00 +10°C° 0.4 mm 4 m/S 752 mmHg 95%
    11:00 +10°C° 0.5 mm 4 m/S 752 mmHg 93%
    12:00 +11°C° 0.5 mm 4 m/S 752 mmHg 92%
    13:00 +12°C° 0.5 mm 4 m/S 752 mmHg 91%
    14:00 +12°C° 0.4 mm 4 m/S 752 mmHg 89%
    15:00 +13°C° 0.4 mm 4 m/S 752 mmHg 88%
    16:00 +13°C° 0.4 mm 3 m/S 751 mmHg 86%
    17:00 +13°C° 0.3 mm 3 m/S 751 mmHg 87%
    18:00 +13°C° 0.3 mm 3 m/S 751 mmHg 87%
    19:00 +13°C° 0.3 mm 3 m/S 751 mmHg 88%
    20:00 +12°C° 0.1 mm 3 m/S 751 mmHg 89%
    21:00 +12°C° 0.1 mm 2 m/S 752 mmHg 91%
    22:00 +10°C° 0.1 mm 2 m/S 752 mmHg 92%
    23:00 +10°C° 0 mm 3 m/S 752 mmHg 93%
    Mehr zeigen